| time (UTC) | temp C | wind direction | speed KPH | gust KPH | rain 1hr cm | rain 24hr cm | rain mn cm | humidity % | barometer mb |
| 20260502224540 | 16 | 0 | 0.0 | 0.0 | 0.00 | 0.00 | 0.00 | 33 | 1015.6 |
| 20260502223041 | 16 | 0 | 0.0 | 0.0 | 0.00 | 0.00 | 0.00 | 32 | 1015.8 |
| 20260502221544 | 16 | 0 | 0.0 | 0.0 | 0.00 | 0.00 | 0.00 | 35 | 1016.0 |
| 20260502220041 | 16 | 0 | 0.0 | 6.4 | 0.00 | 0.00 | 0.00 | 33 | 1016.1 |
| 20260502214540 | 16 | 0 | 0.0 | 3.2 | 0.00 | 0.00 | 0.00 | 36 | 1016.3 |
| 20260502213043 | 16 | 0 | 0.0 | 3.2 | 0.00 | 0.00 | 0.00 | 31 | 1016.5 |
| 20260502211540 | 16 | 0 | 0.0 | 1.6 | 0.00 | 0.00 | 0.00 | 33 | 1016.7 |
| 20260502210044 | 16 | 0 | 0.0 | 3.2 | 0.00 | 0.00 | 0.00 | 31 | 1016.8 |
| 20260502204543 | 16 | 0 | 0.0 | 0.0 | 0.00 | 0.00 | 0.00 | 37 | 1017.1 |
| 20260502203040 | 16 | 0 | 0.0 | 1.6 | 0.00 | 0.00 | 0.00 | 36 | 1017.4 |
| 20260502201538 | 15 | 0 | 1.6 | 12.9 | 0.00 | 0.00 | 0.00 | 34 | 1017.4 |
| 20260502200036 | 16 | 175 | 4.8 | 12.9 | 0.00 | 0.00 | 0.00 | 35 | 1017.8 |
| 20260502194540 | 15 | 0 | 1.6 | 12.9 | 0.00 | 0.00 | 0.00 | 35 | 1018.1 |
| 20260502193043 | 15 | 0 | 0.0 | 16.1 | 0.00 | 0.00 | 0.00 | 34 | 1018.1 |
| 20260502191540 | 15 | 216 | 3.2 | 14.5 | 0.00 | 0.00 | 0.00 | 37 | 1018.5 |
| 20260502190045 | 15 | 235 | 1.6 | 11.3 | 0.00 | 0.00 | 0.00 | 42 | 1018.4 |
| 20260502184554 | 15 | 0 | 1.6 | 17.7 | 0.00 | 0.00 | 0.00 | 38 | 1018.7 |
| 20260502183035 | 14 | 194 | 6.4 | 14.5 | 0.00 | 0.00 | 0.00 | 38 | 1019.0 |
| 20260502181540 | 15 | 0 | 0.0 | 0.0 | 0.00 | 0.00 | 0.00 | 39 | 1019.2 |
| 20260502163052 | 13 | 275 | 1.6 | 6.4 | 0.00 | 0.00 | 0.00 | 40 | 1020.0 |
| 20260502161539 | 12 | 177 | 1.6 | 9.7 | 0.00 | 0.00 | 0.00 | 38 | 1020.3 |
| 20260502151540 | 11 | 37 | 4.8 | 11.3 | 0.00 | 0.00 | 0.00 | 44 | 1020.6 |
| 20260502123055 | -1 | 0 | 0.0 | 0.0 | 0.00 | 0.00 | 0.00 | 90 | 1020.7 |
| 20260502121540 | -1 | 0 | 0.0 | 0.0 | 0.00 | 0.00 | 0.00 | 90 | 1020.7 |
| 20260502114544 | -2 | 0 | 0.0 | 0.0 | 0.00 | 0.00 | 0.00 | 89 | 1020.4 |
| 20260502113041 | -2 | 0 | 0.0 | 0.0 | 0.00 | 0.00 | 0.00 | 88 | 1020.4 |
| 20260502111541 | -2 | 0 | 0.0 | 0.0 | 0.00 | 0.00 | 0.00 | 88 | 1020.2 |
| 20260502110041 | -2 | 0 | 0.0 | 0.0 | 0.00 | 0.00 | 0.00 | 88 | 1020.2 |
| 20260502104541 | -2 | 0 | 0.0 | 0.0 | 0.00 | 0.00 | 0.00 | 88 | 1020.0 |
| 20260502103043 | -2 | 0 | 0.0 | 0.0 | 0.00 | 0.00 | 0.00 | 88 | 1019.9 |
| 20260502101602 | -2 | 0 | 0.0 | 0.0 | 0.00 | 0.00 | 0.00 | 87 | 1019.9 |
| 20260502071536 | 0 | 0 | 0.0 | 0.0 | 0.00 | 0.03 | 0.00 | 80 | 1019.7 |
| 20260502070046 | 0 | 0 | 0.0 | 0.0 | 0.00 | 0.03 | 0.00 | 79 | 1019.7 |
| 20260502064544 | 0 | 0 | 0.0 | 0.0 | 0.00 | 0.03 | 0.00 | 79 | 1019.9 |
| 20260502063039 | 0 | 0 | 0.0 | 0.0 | 0.00 | 0.03 | 0.00 | 78 | 1019.9 |
| 20260502061540 | 0 | 0 | 0.0 | 0.0 | 0.00 | 0.03 | 0.00 | 76 | 1019.9 |
| 20260502060050 | 1 | 0 | 0.0 | 0.0 | 0.00 | 0.03 | 0.00 | 74 | 1019.9 |
| 20260502054537 | 1 | 0 | 0.0 | 0.0 | 0.00 | 0.03 | 0.00 | 72 | 1019.9 |
| 20260502053037 | 1 | 0 | 0.0 | 0.0 | 0.00 | 0.03 | 0.00 | 72 | 1019.9 |
| 20260502051542 | 1 | 0 | 0.0 | 0.0 | 0.00 | 0.03 | 0.00 | 72 | 1019.8 |
| 20260502050042 | 1 | 0 | 0.0 | 0.0 | 0.00 | 0.03 | 0.00 | 73 | 1019.7 |
| 20260502044540 | 1 | 0 | 0.0 | 0.0 | 0.00 | 0.03 | 0.03 | 74 | 1019.7 |
| 20260502043042 | 2 | 0 | 0.0 | 0.0 | 0.00 | 0.03 | 0.03 | 71 | 1019.6 |
| 20260502041542 | 2 | 0 | 0.0 | 0.0 | 0.00 | 0.03 | 0.03 | 69 | 1019.5 |
| 20260502040042 | 3 | 0 | 0.0 | 0.0 | 0.00 | 0.03 | 0.03 | 68 | 1019.4 |
| 20260502034540 | 3 | 0 | 0.0 | 0.0 | 0.00 | 0.03 | 0.03 | 65 | 1019.4 |
| 20260502033046 | 5 | 0 | 0.0 | 16.1 | 0.00 | 0.03 | 0.03 | 62 | 1019.2 |
| 20260502031541 | 5 | 0 | 0.0 | 0.0 | 0.00 | 0.03 | 0.03 | 60 | 1019.1 |
| 20260502030053 | 6 | 0 | 0.0 | 0.0 | 0.00 | 0.03 | 0.03 | 58 | 1018.9 |
| 20260502024544 | 6 | 0 | 0.0 | 17.7 | 0.00 | 0.03 | 0.03 | 55 | 1018.7 |
| 20260502023103 | 6 | 359 | 4.8 | 22.5 | 0.00 | 0.03 | 0.03 | 54 | 1018.6 |
| 20260502021544 | 7 | 0 | 8.0 | 33.8 | 0.00 | 0.03 | 0.03 | 54 | 1018.5 |
| 20260502020042 | 7 | 357 | 1.6 | 19.3 | 0.00 | 0.03 | 0.03 | 54 | 1018.2 |
| 20260502014542 | 7 | 0 | 0.0 | 17.7 | 0.00 | 0.03 | 0.03 | 52 | 1018.1 |
| 20260502013041 | 8 | 0 | 3.2 | 17.7 | 0.00 | 0.03 | 0.03 | 50 | 1018.0 |
| 20260502011541 | 9 | 0 | 4.8 | 16.1 | 0.00 | 0.03 | 0.03 | 48 | 1017.8 |
| 20260502010037 | 10 | 23 | 6.4 | 17.7 | 0.00 | 0.03 | 0.03 | 46 | 1017.7 |
| 20260502004550 | 10 | 10 | 4.8 | 17.7 | 0.00 | 0.03 | 0.03 | 44 | 1017.4 |
| 20260502003042 | 10 | 17 | 8.0 | 25.7 | 0.00 | 0.03 | 0.03 | 44 | 1017.3 |
| 20260502001540 | 11 | 13 | 12.9 | 35.4 | 0.00 | 0.03 | 0.03 | 42 | 1017.2 |
| 20260502000040 | 11 | 360 | 16.1 | 38.6 | 0.00 | 0.03 | 0.03 | 42 | 1017.0 |
| 20260501234541 | 11 | 10 | 12.9 | 33.8 | 0.00 | 0.03 | 0.03 | 42 | 1016.9 |
| 20260501233039 | 12 | 350 | 12.9 | 24.1 | 0.00 | 0.03 | 0.03 | 43 | 1016.9 |
| 20260501231541 | 12 | 19 | 4.8 | 11.3 | 0.00 | 0.03 | 0.03 | 43 | 1017.0 |
| 20260501230043 | 12 | 33 | 4.8 | 22.5 | 0.00 | 0.03 | 0.03 | 45 | 1016.9 |